Date String (YYYY-MM-DD hh:mm:ss) UTC,Instrument flags,absolute air pressure of the measurement (hPa),sample flow rate (lpm),inlet stack bypass flow (lpm),air temperature of the measurement (°C),ambient temperature measured by the external sensor (°C),aerosol sample conditioner tube jacket temperature (°C),OPC LED temperature (°C),internal box temperature (°C),relative humidity of the measurement (%),span deviation,mass concentration of particles derived from Lorenz-Mie calculation of OPC scattering (μg/m³),mass concentration of particles derived from Lorenz-Mie calculation of OPC scattering (μg/m³),mass concentration of particles derived from Lorenz-Mie calculation of OPC scattering (μg/m³)
DateTimeUTC,F1_M11,P_M11,Q1_M11,Q2_M11,T1_M11,T2_M11,T3_M11,T4_M11,T5_M11,U1_M11,ZSPAN_M11,X0_M11,X2_M11,X1_M11
2024-02-11 21:00:00,SystemResetWarning,0828.0,5.00,000.00,019.2,018.7,000.0,027.6,020.9,13.6,0000.1,0008.67,0005.75,0005.55
2024-02-11 21:01:00,SystemResetWarning,0828.1,5.01,000.00,019.2,018.7,000.0,027.6,020.9,13.8,0000.3,0008.56,0005.70,0005.50
2024-02-11 21:02:00,SystemResetWarning,0828.0,5.01,000.00,019.2,018.7,000.0,027.6,020.9,13.0,0000.0,0008.51,0005.66,0005.47
2024-02-11 21:03:00,SystemResetWarning,0828.0,5.00,000.00,019.2,018.7,000.0,027.6,020.9,13.4,0000.0,0008.49,0005.65,0005.45
2024-02-11 21:04:00,SystemResetWarning,0828.1,4.99,000.00,019.2,018.7,000.0,027.6,020.9,13.5,0000.0,0008.48,0005.64,0005.43
2024-02-11 21:05:00,SystemResetWarning,0828.1,5.00,000.00,019.2,018.7,000.0,027.6,020.9,13.7,0000.0,0008.56,0005.63,0005.41
2024-02-11 21:06:00,SystemResetWarning,0828.1,4.99,000.00,019.2,018.7,000.0,027.6,020.9,12.9,0000.0,0008.70,0005.62,0005.40
2024-02-11 21:07:00,SystemResetWarning,0828.0,5.00,000.00,019.2,018.7,000.0,027.6,020.9,13.0,0000.0,0008.42,0005.58,0005.36
2024-02-11 21:08:00,SystemResetWarning,0828.1,5.00,000.00,019.2,018.7,000.0,027.6,020.9,13.7,0000.0,0008.40,0005.56,0005.34
2024-02-11 21:09:00,SystemResetWarning,0828.1,5.00,000.00,019.2,018.7,000.0,027.6,020.9,13.0,0000.0,0008.56,0005.58,0005.35
2024-02-11 21:10:00,SystemResetWarning,0828.1,5.00,000.00,019.2,018.7,000.0,027.6,020.9,12.4,0000.0,0008.89,0005.61,0005.38
2024-02-11 21:11:00,SystemResetWarning,0828.1,5.01,000.00,019.2,018.7,000.0,027.6,020.9,13.5,0000.0,0008.70,0005.61,0005.39
2024-02-11 21:12:00,SystemResetWarning,0828.1,5.00,000.00,019.2,018.7,000.0,027.6,020.9,13.5,0000.0,0008.50,0005.62,0005.40
2024-02-11 21:13:00,SystemResetWarning,0828.0,5.00,000.00,019.2,018.7,000.0,027.6,020.8,13.7,0000.0,0008.60,0005.65,0005.42
2024-02-11 21:14:00,SystemResetWarning,0828.1,5.00,000.00,019.2,018.7,000.0,027.6,020.8,13.4,0000.0,0008.61,0005.63,0005.39
2024-02-11 21:15:00,SystemResetWarning,0828.1,4.99,000.00,019.2,018.7,000.0,027.6,020.8,14.2,0000.0,0008.58,0005.60,0005.37
2024-02-11 21:16:00,SystemResetWarning,0828.1,5.00,000.00,019.2,018.7,000.0,027.6,020.9,13.3,0000.0,0008.52,0005.59,0005.35
2024-02-11 21:17:00,SystemResetWarning,0828.1,5.01,000.00,019.2,018.7,000.0,027.6,020.9,13.3,0000.0,0008.32,0005.58,0005.36
2024-02-11 21:18:00,SystemResetWarning,0828.1,5.00,000.00,019.2,018.7,000.0,027.6,020.8,13.4,0000.0,0008.37,0005.64,0005.42
2024-02-11 21:19:00,SystemResetWarning,0828.1,5.01,000.00,019.2,018.7,000.0,027.6,020.9,13.5,0000.0,0008.38,0005.65,0005.43
2024-02-11 21:20:00,SystemResetWarning,0828.1,5.01,000.00,019.2,018.7,000.0,027.6,020.9,14.0,0000.0,0009.20,0005.68,0005.47
2024-02-11 21:21:00,SystemResetWarning,0828.0,4.99,000.00,019.2,018.7,000.0,027.6,020.8,13.7,0000.0,0008.87,0005.71,0005.50
2024-02-11 21:22:00,SystemResetWarning,0828.1,4.99,000.00,019.1,018.7,000.0,027.5,020.8,13.1,0000.0,0008.91,0005.74,0005.52
2024-02-11 21:23:00,SystemResetWarning,0828.0,5.02,000.00,019.1,018.7,000.0,027.5,020.8,12.9,0000.0,0009.09,0005.76,0005.54
2024-02-11 21:24:00,SystemResetWarning,0828.1,5.01,000.00,019.1,018.7,000.0,027.5,020.8,13.1,0000.0,0009.16,0005.75,0005.55
2024-02-11 21:25:00,SystemResetWarning,0828.0,4.99,000.00,019.1,018.7,000.0,027.5,020.8,13.2,0000.0,0009.14,0005.76,0005.57
2024-02-11 21:26:00,SystemResetWarning,0828.1,4.98,000.00,019.1,018.7,000.0,027.5,020.8,13.4,0000.6,0009.19,0005.80,0005.61
2024-02-11 21:27:00,SystemResetWarning,0828.1,5.00,000.00,019.1,018.7,000.0,027.5,020.8,13.5,0002.6,0009.21,0005.85,0005.66
2024-02-11 21:28:00,SystemResetWarning,0828.1,5.01,000.00,019.1,018.7,000.0,027.5,020.9,13.0,0001.7,0009.21,0005.85,0005.66
2024-02-11 21:29:00,SystemResetWarning,0828.2,5.01,000.00,019.1,018.7,000.0,027.6,020.8,13.0,0000.3,0009.20,0005.84,0005.65
2024-02-11 21:30:00,SystemResetWarning,0828.2,5.00,000.00,019.1,018.7,000.0,027.5,020.8,12.6,0000.5,0009.28,0005.88,0005.66
2024-02-11 21:31:00,SystemResetWarning,0828.2,5.00,000.00,019.1,018.7,000.0,027.5,020.8,12.9,0000.6,0008.50,0005.87,0005.64
2024-02-11 21:32:00,SystemResetWarning,0828.2,4.99,000.00,019.1,018.7,000.0,027.5,020.8,12.8,0000.7,0008.36,0005.83,0005.61
2024-02-11 21:33:00,SystemResetWarning,0828.3,5.00,000.00,019.1,018.7,000.0,027.5,020.8,12.9,0000.9,0008.59,0005.78,0005.56
2024-02-11 21:34:00,SystemResetWarning,0828.2,5.00,000.00,019.1,018.7,000.0,027.5,020.8,12.8,0000.0,0008.71,0005.76,0005.53
2024-02-11 21:35:00,SystemResetWarning,0828.2,5.00,000.00,019.1,018.7,000.0,027.5,020.9,13.0,0000.0,0008.66,0005.77,0005.51
2024-02-11 21:36:00,SystemResetWarning,0828.2,5.00,000.00,019.2,018.7,000.0,027.5,020.9,13.2,0000.0,0008.62,0005.75,0005.48
2024-02-11 21:37:00,SystemResetWarning,0828.3,4.99,000.00,019.2,018.7,000.0,027.5,020.9,13.5,0000.0,0008.62,0005.74,0005.46
2024-02-11 21:38:00,SystemResetWarning,0828.3,5.00,000.00,019.2,018.7,000.0,027.5,020.9,13.2,0000.0,0008.63,0005.72,0005.45
2024-02-11 21:39:00,SystemResetWarning,0828.3,5.02,000.00,019.2,018.8,000.0,027.5,020.9,12.9,0000.0,0008.61,0005.70,0005.44
2024-02-11 21:40:00,SystemResetWarning,0828.3,5.01,000.00,019.2,018.8,000.0,027.5,020.9,13.3,0000.0,0008.60,0005.68,0005.42
2024-02-11 21:41:00,SystemResetWarning,0828.3,5.00,000.00,019.2,018.8,000.0,027.5,020.9,13.0,0000.0,0008.54,0005.64,0005.39
2024-02-11 21:42:00,SystemResetWarning,0828.3,5.00,000.00,019.2,018.8,000.0,027.6,020.9,13.2,0000.0,0008.54,0005.60,0005.36
2024-02-11 21:43:00,SystemResetWarning,0828.3,5.00,000.00,019.2,018.8,000.0,027.6,020.9,13.4,0000.0,0008.52,0005.59,0005.38
2024-02-11 21:44:00,SystemResetWarning,0828.3,5.00,000.00,019.2,018.7,000.0,027.6,020.9,13.2,0000.0,0008.49,0005.63,0005.42
2024-02-11 21:45:00,SystemResetWarning,0828.3,5.00,000.00,019.2,018.7,000.0,027.6,020.8,13.4,0000.0,0008.33,0005.69,0005.47
2024-02-11 21:46:00,SystemResetWarning,0828.3,5.00,000.00,019.2,018.7,000.0,027.6,020.8,13.8,0000.0,0007.98,0005.71,0005.51
2024-02-11 21:47:00,SystemResetWarning,0828.3,5.00,000.00,019.2,018.7,000.0,027.6,020.8,13.4,0000.0,0007.92,0005.73,0005.57
2024-02-11 21:48:00,SystemResetWarning,0828.4,5.00,000.00,019.2,018.7,000.0,027.6,020.9,12.5,0000.0,0008.07,0005.79,0005.62
2024-02-11 21:49:00,SystemResetWarning,0828.3,5.00,000.00,019.2,018.7,000.0,027.6,020.8,12.0,0000.0,0008.47,0005.85,0005.68
2024-02-11 21:50:00,SystemResetWarning,0828.3,5.00,000.00,019.1,018.7,000.0,027.6,020.8,12.4,0000.0,0008.53,0005.90,0005.73
2024-02-11 21:51:00,SystemResetWarning,0828.4,5.00,000.00,019.1,018.7,000.0,027.5,020.8,12.6,0000.0,0008.71,0005.97,0005.78
2024-02-11 21:52:00,SystemResetWarning,0828.3,5.00,000.00,019.2,018.7,000.0,027.6,020.8,12.8,0000.0,0009.76,0006.03,0005.84
2024-02-11 21:53:00,SystemResetWarning,0828.4,5.00,000.00,019.2,018.7,000.0,027.6,020.8,13.0,0000.0,0010.21,0006.06,0005.87
2024-02-11 21:54:00,SystemResetWarning,0828.4,5.01,000.00,019.1,018.7,000.0,027.5,020.8,13.0,0000.0,0010.19,0006.04,0005.85
2024-02-11 21:55:00,SystemResetWarning,0828.3,5.00,000.00,019.1,018.7,000.0,027.5,020.8,13.0,0000.0,0010.13,0005.99,0005.81
2024-02-11 21:56:00,SystemResetWarning,0828.3,5.00,000.00,019.1,018.7,000.0,027.5,020.8,13.1,0000.0,0010.12,0005.99,0005.80
2024-02-11 21:57:00,SystemResetWarning,0828.3,4.99,000.00,019.1,018.7,000.0,027.5,020.8,13.2,0000.0,0010.20,0005.98,0005.78
2024-02-11 21:58:00,SystemResetWarning,0828.3,4.99,000.00,019.1,018.7,000.0,027.5,020.8,13.2,0000.0,0010.21,0005.97,0005.76
2024-02-11 21:59:00,SystemResetWarning,0828.4,5.00,000.00,019.1,018.7,000.0,027.5,020.8,13.2,0000.0,0010.18,0005.95,0005.74
